www.pogodaiklimat.ru

Погода и климат >> Архив погоды >> Индонезия >> Паданг


ПОГОДА в Паданге

  • Прогноз погоды в Паданге
  • Монитор погоды в Паданге

АРХИВ ПОГОДЫ в Паданге

Время (UTC), дата Ветер
(напр.,м/с)
 
Видим.   Явления Облачность Т
(С)
Тd
(С)
f
(%)
Тe
(С)
Тes
(С)
Комфортность P
(гПа)
Po
(гПа)
Тmin
(С)
Tmax
(С)
R
(мм)
R24
(мм)
S
(см)
09 9.09 штиль 0 10 км 6/3 600 м
[Sc As op Ci fib]
+30.1 +24.8 73 +43 +48 опасность
перегрева
1009.9 1009.2
12 9.09 штиль 0 10 км 6/3 600 м
[Sc As op Ci fib]
+28.1 +24.5 81 +40 +40 очень
душно
1010.8 1010.1 +30.4
15 9.09 штиль 0 6000 м 6/1 600 м
[Sc Ac trans Cs]
+25.8 +24.3 91 +36 +36 очень
душно
1012.6 1011.9
18 9.09 штиль 0 6000 м 9/1 600 м
[Sc As op Cs]
+24.2 +22.9 92 +32 +32 очень
душно
1011.6 1010.9
21 9.09 штиль 0 7000 м 9/1 600 м
[Sc As op Cs]
+22.0 +21.3 96 +29 +29 очень
душно
1011.5 1010.8
00 10.09 штиль 0 10 км 6/1 600 м
[Sc Ac trans Ci fib]
+22.4 +21.7 96 +30 +30 очень
душно
1013.3 1012.6 +22.0
03 10.09 Ю 2 10 км 6/1 600 м
[Cu hum Ac trans Ci fib]
+29.2 +22.4 67 +38 +48 очень
душно
1014.0 1013.4
06 10.09 Ю 5 10 км 5/3 600 м
[Cu Sc Ac trans Ci fib]
+30.2 +23.7 68 +41 +48 опасность
перегрева
1012.0 1011.4
09 10.09 Ю 3 10 км 5/3 600 м
[Cu Sc Ac trans Ci fib]
+29.6 +24.1 72 +41 +45 опасность
перегрева
1010.4 1009.8
12 10.09 ЮВ 1 10 км 6/3 600 м
[Sc Ac trans Ci fib]
+28.0 +24.5 81 +39 +39 очень
душно
1011.6 1011.0 +30.4
15 10.09 штиль 0 10 км 6/3 600 м
[Sc Ac trans Ci fib]
+25.8 +23.4 87 +35 +35 очень
душно
1013.9 1013.2
18 10.09 штиль 0 10 км 6/3 600 м
[Sc Ac trans Ci fib]
+24.2 +22.6 91 +32 +32 очень
душно
1012.9 1012.2
21 10.09 штиль 0 10 км 8/4 600 м
[Sc As op Cs]
+23.6 +22.3 92 +31 +31 очень
душно
1011.8 1011.1
00 11.09 штиль 0 10 км 8/4 600 м
[Sc As op Cs]
+23.0 +22.0 94 +31 +32 очень
душно
1013.2 1012.5 +22.4
03 11.09 ЮЗ 3 10 км 6/3 600 м
[Sc As op Ci fib]
+29.2 +23.4 71 +40 +47 очень
душно
1014.3 1013.5
06 11.09 Ю 3 10 км 6/3 600 м
[Cu med, cong As op Ci fib]
+30.4 +24.2 70 +42 +52 опасность
перегрева
1012.0 1011.3
09 11.09 Ю 3 10 км 8/4 600 м
[Cu Sc As op Ci fib]
+29.6 +24.6 75 +42 +45 опасность
перегрева
1010.4 1009.6
12 11.09 ЮВ 2 9000 м 8/4 600 м
[Sc As op Cs]
+27.9 +24.2 80 +39 +39 очень
душно
1011.7 1010.9 +30.4
15 11.09 штиль 0 9000 м 8/4 600 м
[Sc As op Cs]
+27.2 +25.1 88 +39 +39 очень
душно
1013.5 1012.7
18 11.09 штиль 0 9000 м 8/4 600 м
[Sc As op Cs]
+24.6 +23.2 92 +33 +33 очень
душно
1013.2 1012.5
21 11.09 штиль 0 9000 м 8/4 600 м
[Sc As op Cs]
+24.0 +22.9 94 +32 +32 очень
душно
1012.7 1012.1
00 12.09 штиль 0 7000 м дым 8/4 600 м
[Sc As op Ci fib]
+23.5 +23.0 97 +31 +32 очень
душно
1014.0 1013.4 +23.0
03 12.09 Ю 2 10 км 6/3 600 м
[Sc As op Ci fib]
+28.6 +23.0 72 +38 +47 очень
душно
1015.1 1014.4
06 12.09 Ю 2 10 км 6/3 600 м
[Sc As op Ci fib]
+29.8 +23.4 69 +40 +52 опасность
солнечного
удара
1013.0 1012.3
09 12.09 Ю 3 7000 м 10/3 600 м
[Sc Ac As Cs]
+29.0 +23.3 71 +39 +41 очень
душно
1011.0 1010.3
12 12.09 Ю 3 7000 м 9/3 600 м
[Sc Ac trans Cs]
+27.6 +23.8 80 +38 +38 очень
душно
1011.8 1011.1 +30.2
15 12.09 штиль 0 6000 м 9/3 600 м
[Sc As op Cs]
+26.0 +24.5 91 +36 +36 очень
душно
1013.4 1012.8
18 12.09 штиль 0 6000 м 9/3 600 м
[Sc As op Cs]
+24.5 +23.1 92 +33 +33 очень
душно
1012.7 1012.1
21 12.09 штиль 0 6000 м 8/3 600 м
[Sc As op Cs]
+23.4 +22.7 96 +33 +33 очень
душно
1012.4 1011.8
00 13.09 штиль 0 2700 м дым 8/3 600 м
[Sc As op Cs]
+23.2 +22.4 95 +32 +32 очень
душно
1013.9 1013.3 +22.4
03 13.09 Ю 1 4000 м дым 9/1 600 м
[Sc Ac trans Cs]
+28.2 +22.9 73 +38 +46 очень
душно
1014.7 1014.0
06 13.09 Ю 4 7000 м 10/3 600 м
[Sc Ac trans Cs]
+29.6 +23.2 69 +40 +45 очень
душно
1012.9 1012.2
09 13.09 Ю 4 7000 м 6/1 600 м
[Cu hum As trans Ci fib]
+29.0 +23.8 74 +40 +43 очень
душно
1011.1 1010.4
12 13.09 Ю 3 7000 м 6/1 600 м
[Cu hum Ac trans Ci fib]
+27.5 +23.7 80 +38 +38 очень
душно
1012.3 1011.6 +30.0
15 13.09 штиль 0 9000 м 8/4 600 м
[St As op Cs]
+26.5 +23.8 85 +36 +36 очень
душно
1014.0 1013.3
18 13.09 штиль 0 6000 м дым 8/4 600 м
[Sc As op Cs]
+24.6 +23.5 94 +33 +33 очень
душно
1013.4 1012.7
21 13.09 штиль 0 6000 м дым 8/4 600 м
[Sc As op Cs]
+24.0 +23.0 94 +32 +32 очень
душно
1012.8 1012.0
00 14.09 штиль 0 5000 м дым 6/3 600 м
[Sc As op Cs]
+23.5 +22.7 95 +31 +31 очень
душно
1014.0 1013.2 +23.2
03 14.09 Ю 2 10 км дым 8/4 600 м
[Sc As op Cs]
+28.4 +22.0 68 +37 +43 очень
душно
1015.3 1014.5
06 14.09 ЮВ 4 10 км 8/4 600 м
[Sc As op Cs]
+29.4 +22.6 67 +39 +44 очень
душно
1013.0 1012.3
09 14.09 Ю 5 10 км 5/1 600 м
[Cu hum As trans Ci fib]
+28.5 +23.1 73 +38 +41 очень
душно
1011.2 1010.5
12 14.09 ЮВ 3 10 км 8/1 600 м
[Cu hum Ac trans Ci fib]
+26.9 +23.2 80 +36 +36 очень
душно
1011.9 1011.2 +29.4
15 14.09 СВ 1 8000 м 9/1 600 м
[Sc Ac trans Cs]
+24.7 +22.8 89 +33 +33 очень
душно
1013.2 1012.5
18 14.09 С 1 8000 м 9/1 600 м
[Sc Ac trans Cs]
+23.5 +22.1 92 +30 +30 очень
душно
1012.2 1011.5
21 14.09 штиль 0 7000 м 10/3 600 м
[Sc Ac As Cs]
+22.4 +21.4 94 +29 +29 очень
душно
1011.6 1010.9
00 15.09 штиль 0 6000 м 10/1 600 м
[Sc Ac trans Cs]
+22.1 +21.5 96 +29 +29 очень
душно
1012.2 1011.5 +22.0
03 15.09 Ю 2 8000 м 9/1 600 м
[Cu hum Ac As Cs]
+27.0 +20.3 67 +33 +41 очень
душно
1014.0 1013.2
06 15.09 Ю 3 10 км 9/1 600 м
[Cu hum As op Cs]
+28.4 +19.5 59 +34 +44 очень
душно
1012.2 1011.4
09 15.09 Ю 3 10 км 9/1 600 м
[Cu hum As op Cs]
+28.9 +19.6 57 +35 +38 очень
душно
1010.1 1009.5
12 15.09 штиль 0 10 км 9/1 600 м
[Sc As op Cs]
+25.8 +20.6 73 +32 +32 очень
душно
1010.8 1010.2 +29.0
15 15.09 штиль 0 10 км 8/4 600 м
[Sc As op Cs]
+22.2 +20.3 89 +28 +28 душно 1012.7 1012.0
18 15.09 штиль 0 10 км 6/3 600 м
[Sc As op Cs]
+21.0 +19.5 91 +25 +25 комфорт 1011.0 1010.3
21 15.09 штиль 0 10 км 6/3 600 м
[Sc As op Cs]
+19.4 +18.0 92 +21 +21 комфорт 1010.5 1009.5
00 16.09 штиль 0 10 км 6/3 600 м
[Sc As op Cs]
+29.2 +28.6 97 +50 +51 опасность
перегрева
1011.5 1010.8 +18.6
03 16.09 Ю 2 10 км 5/1 600 м
[Sc Ac trans Ci fib]
+27.2 +20.5 67 +34 +44 очень
душно
1012.5 1011.9

 

Местоположение метеостанции Паданг (Индонезия): широта -0.88 долгота 100.35 высота над уровнем моря 3 м.

В архиве по умолчанию представлена погода в Паданге за последнюю неделю. Архивные данные за месяц целиком и за предыдущие месяцы, начиная с января 2011 года, Вы можете получить, выбрав интересующий диапазон дат из раскрывающегося списка и нажав кнопку "Ввод!".


*Определитесь, кто Вы:
робот инопланетянин человек

Внимание! Время в таблицах - всемирное. Для получения местного времени необходимо прибавить поправку, которая равна 7 ч.

Смотрите также архив погоды в соседних городах и на ближайших метеорологических станциях:

Погода в Пеканбару (Индонезия) (194 км)
Погода в Аэропорту Япура (Индонезия) (226 км)
Погода на Керинчи (Индонезия) (238 км)
Погода в Сиболге (Индонезия) (316 км)
Погода в Джамби (Индонезия) (376 км)
Погода в Бенкулу (Индонезия) (400 км)
Погода в Гунунгситоли (Индонезия) (402 км)
Погода в Малакке (Малайзия) (409 км)
Погода в Куала-Лумпур аэропорту (Малайзия) (428 км)
Погода в Аэропорту Сеная (Малайзия) (463 км)

Пояснения к столбцам:

Ветер - указаны скорость ветра в м/с - средняя за 10 мин, порывы в срок и между сроками (в фигурных скобках) и направление, откуда дует ветер: С - северный, СВ - северо-восточный, В - восточный, ЮВ - юго-восточный, Ю - южный, ЮЗ - юго-западный, З - западный, СЗ - северо-западный.
Видимость - горизонтальная дальность видимости в метрах или километрах. При видимости от 1 до 10 км при отсутствии осадков обычно наблюдается дымка, при ухудшении видимости до 1 км и менее - туман. В сухую погоду видимость может ухудшаться дымом, пылью или мглою.
Явления - указаны атмосферные явления, наблюдавшиеся в срок или в последний час перед сроком; фигурными скобками обозначены явления, наблюдавшиеся между сроками (за 1-3 часа до срока); квадратными скобками обозначены град или гололедные отложения с указанием их диаметра в мм.
Облачность - указаны через наклонную черту общая и нижняя облачность в баллах и высота нижней границы облаков в метрах; квадратными скобками обозначены формы облаков: Ci - перистые, Cs - перисто-слоистые, Cc - перисто-кучевые, Ac - высококучевые, As - высокослоистые, Sc - слоисто-кучевые, Ns - слоисто-дождевые, Cu - кучевые, Cb - кучево-дождевые. Подробнее классификацию облаков см. в Атласе облаков (PDF).
T - Температура воздуха - температура, измеренная на высоте 2 м над землей.
Td - Температура точки росы - температура, при понижении до которой содержащийся в воздухе водяной пар достигнет насыщения.
f - Относительная влажность воздуха - влажноcть воздуха, измеренная на высоте 2 м над землей.
Te - Эффективная температура - температура, которую ощущает одетый по сезону человек в тени. Характеристика душности погоды. При расчете учитывается влияние влажности воздуха и скорости ветра на теплоощущения человека.
Tes - Эффективная температура на солнце - температура, которую ощущает человек, с поправкой на солнечный нагрев. Характеристика знойности погоды. Зависит от высоты солнца над горизонтом, облачности и скорости ветра. Ночью, в пасмурную погоду, а также при ветре 12 м/с и более поправка равна нулю.
P - Атмосферное давление - приведенное к уровню моря атмосферное давление.
Po - Атмосферное давление - измеренное на уровне метеостанции атмосферное давление.
Tmin - Минимальная температура - минимум температуры воздуха на высоте 2 м над землей.
Tmax - Максимальная температура - максимум температуры воздуха на высоте 2 м над землей.
R - Количество осадков - Количество выпавших осадков за период времени, мм. При наведении курсора мыши на число - период времени, за который выпало указанное количество осадков.
R24 - Количество осадков - Количество выпавших осадков за 24 часа, мм.
S - Снежный покров - Высота снежного покрова, см. При наведении курсора мыши на число - состояние снежного покрова и степень покрытия местности в баллах.